This is the latest recevied weather packets stored in our database for station/object DL2GKM-6. If no packets are shown the sender has not sent any weather packets the latest 1 day(s).
| Time | Temp. | Humidity | Pressure | Rain* | Wind** | Luminosity | Snow |
|---|---|---|---|---|---|---|---|
| 1777970896 | 17.78° C | 58% | 1008.1 hPa | 128.52 mm | 2.24 m/s, 301° | - | - |
| 1777968744 | 17.22° C | 60% | 1008.3 hPa | 128.52 mm | 0.45 m/s, 330° | - | - |
| 1777968464 | 16.67° C | 61% | 1008.4 hPa | 128.52 mm | 0 m/s | - | - |
| 1777968216 | 16.67° C | 62% | 1008.4 hPa | 128.52 mm | 1.34 m/s, 274° | - | - |
| 1777967951 | 16.67° C | 62% | 1008.5 hPa | 128.52 mm | 1.34 m/s, 76° | - | - |
| 1777967691 | 16.67° C | 62% | 1008.6 hPa | 128.52 mm | 0.45 m/s, 349° | - | - |
| 1777967424 | 16.67° C | 62% | 1008.6 hPa | 128.52 mm | 1.34 m/s, 55° | - | - |
| 1777967151 | 16.11° C | 63% | 1008.7 hPa | 128.52 mm | 1.79 m/s, 265° | - | - |
| 1777966901 | 16.11° C | 64% | 1008.7 hPa | 128.52 mm | 0 m/s | - | - |
| 1777966636 | 16.11° C | 64% | 1008.7 hPa | 128.52 mm | 2.24 m/s, 302° | - | - |
| 1777966344 | 15.56° C | 65% | 1008.9 hPa | 128.52 mm | 2.68 m/s, 13° | - | - |
| 1777966071 | 15.56° C | 66% | 1008.9 hPa | 128.52 mm | 0.89 m/s, 347° | - | - |
| 1777965805 | 15.56° C | 65% | 1008.9 hPa | 128.52 mm | 0.89 m/s, 323° | - | - |
| 1777965536 | 15.56° C | 66% | 1008.9 hPa | 128.52 mm | 0.45 m/s, 14° | - | - |
| 1777965236 | 15° C | 66% | 1008.9 hPa | 128.52 mm | 2.24 m/s, 27° | - | - |
| 1777964971 | 15° C | 65% | 1008.7 hPa | 128.52 mm | 1.79 m/s, 11° | - | - |
| 1777964669 | 15° C | 66% | 1008.9 hPa | 128.52 mm | 2.68 m/s, 3° | - | - |
| 1777964391 | 15° C | 66% | 1008.7 hPa | 128.52 mm | 0 m/s | - | - |
| 1777964096 | 15° C | 66% | 1008.7 hPa | 128.52 mm | 1.34 m/s, 6° | - | - |
| 1777963856 | 15° C | 67% | 1008.9 hPa | 128.52 mm | 1.34 m/s, 27° | - | - |
| 1777963586 | 15° C | 67% | 1008.9 hPa | 128.52 mm | 0 m/s | - | - |
| 1777963321 | 15° C | 67% | 1008.9 hPa | 128.52 mm | 0 m/s | - | - |
| 1777963044 | 15° C | 67% | 1009 hPa | 128.52 mm | 0 m/s | - | - |
| 1777962781 | 15° C | 67% | 1009 hPa | 128.52 mm | 0 m/s | - | - |
| 1777962491 | 15° C | 68% | 1009 hPa | 128.52 mm | 0 m/s | - | - |
* Rain latest 24 hours (hover to see other rain measurements)
** Current wind speed in m/s (hover to see current wind gust speed)